Location: Kershaw
(34.5481°N, 80.5823°W)
Time: 12:51:58
(UTC+00:00)

Tiros 1 despin weight - Pass Details

Date: 04 October 2022
Orbit: 590 x 637 km, 48.2° (Epoch: 25 November)

Event Time Altitude Azimuth Distance (km) Brightness Sun altitude
Rises 01:06:03 0° 312° (NW) 2,884 ? -25.9°
Reaches altitude 10° 01:08:55 10° 330° (NNW) 1,988 ? -26.5°
Enters shadow 01:11:30 19° 4° (N) 1,506 ? -27.0°
Maximum altitude 01:12:14 19° 17° (NNE) 1,478 - -27.1°
Drops below altitude 10° 01:15:35 10° 63° (ENE) 2,006 - -27.8°
Sets 01:18:29 0° 81° (E) 2,919 - -28.4°
